Details for UPS at KCAE




Go Back


Latest METAR
Local Time

KCAE 220856Z 26003KT 9SM CLR 21/21 A3011 RMK AO2 SLP193 T02110206 56007
22/09/2018, 05:14:01

Description
Results
UPS Logo
Number of Pilots based at KCAE
0 Pilots Based here
Number of UPS Flights Departed from KCAE
1 Flights Departed
Number of UPS Flights Arrived at KCAE
1 Flights Arrived
Number of UPS Schedules Departing from KCAE
39 Schedules
Number of UPS Schedules Arriving at KCAE
40 Schedules
Number of UPS Schedules Departing from KCAE availible today
1 Schedules Today
Number of UPS Schedules Arriving at KCAE availible today
2 Schedules Today
Average Landing Rate at KCAE
-81 fpm
UPS Average Landing Rate at KCAE
-81 fpm
Total Fuel Purchased at KCAE by UPS
13,075.25 kgs / 28,825.70 lbs

Pilots Based at KCAE


Pilot ID
Pilot Name
Pilot Rank
No. of Flights
No. of Flying Hours
There are no pilots assigned to this hub!   Will you be the first?
Content